This is the latest recevied weather packets stored in our database for station/object G6UYG-13. If no packets are shown the sender has not sent any weather packets the latest 1 day(s).
| Time | Temp. | Humidity | Pressure | Rain* | Wind** | Luminosity | Snow |
|---|---|---|---|---|---|---|---|
| 1777982375 | 11.67° C | 72% | 1012.8 hPa | 0 mm | 0.89 m/s, 325° | 241 W/m² | - |
| 1777981955 | 11.67° C | 73% | 1012.7 hPa | 0 mm | 0.89 m/s, 74° | 223 W/m² | - |
| 1777981535 | 11.67° C | 74% | 1012.7 hPa | 0 mm | 0.45 m/s, 33° | 181 W/m² | - |
| 1777981115 | 11.11° C | 73% | 1012.8 hPa | 0 mm | 0.89 m/s, 104° | 162 W/m² | - |
| 1777980695 | 11.11° C | 74% | 1012.9 hPa | 0 mm | 0.45 m/s, 5° | 130 W/m² | - |
| 1777980275 | 11.11° C | 76% | 1013 hPa | 0 mm | 0.89 m/s, 44° | 123 W/m² | - |
| 1777979855 | 11.11° C | 76% | 1013 hPa | 0 mm | 0.89 m/s, 75° | 132 W/m² | - |
| 1777979435 | 11.11° C | 76% | 1013 hPa | 0 mm | 0.89 m/s, 51° | 132 W/m² | - |
| 1777979015 | 11.11° C | 75% | 1013.1 hPa | 0 mm | 0.89 m/s, 65° | 125 W/m² | - |
| 1777978595 | 11.67° C | 75% | 1013.1 hPa | 0 mm | 0.89 m/s, 35° | 113 W/m² | - |
| 1777978175 | 11.67° C | 74% | 1013.2 hPa | 0 mm | 0.89 m/s, 46° | 113 W/m² | - |
| 1777977755 | 11.67° C | 73% | 1013.1 hPa | 0 mm | 0.89 m/s, 351° | 165 W/m² | - |
| 1777977335 | 11.11° C | 76% | 1013.1 hPa | 0 mm | 0.89 m/s, 60° | 204 W/m² | - |
| 1777976915 | 11.11° C | 76% | 1013.1 hPa | 0 mm | 1.34 m/s, 37° | 251 W/m² | - |
| 1777976495 | 11.11° C | 76% | 1013.1 hPa | 0 mm | 1.34 m/s, 62° | 223 W/m² | - |
| 1777976075 | 11.11° C | 75% | 1013.1 hPa | 0 mm | 0.89 m/s, 39° | 200 W/m² | - |
| 1777975655 | 10.56° C | 76% | 1013.1 hPa | 0 mm | 0.89 m/s, 348° | 221 W/m² | - |
| 1777975235 | 10.56° C | 76% | 1013.2 hPa | 0 mm | 0.89 m/s, 305° | 179 W/m² | - |
| 1777974815 | 10.56° C | 77% | 1013.2 hPa | 0 mm | 0.89 m/s, 45° | 149 W/m² | - |
| 1777974395 | 11.11° C | 77% | 1013.2 hPa | 0 mm | 0.89 m/s, 333° | 102 W/m² | - |
* Rain latest hour (hover to see other rain measurements)
** Current wind speed in m/s (hover to see current wind gust speed)